TimeCST,TemperatureF,Dew PointF,Humidity,Sea Level PressureIn,VisibilityMPH,Wind Direction,Wind SpeedMPH,Gust SpeedMPH,PrecipitationIn,Events,Conditions,WindDirDegrees,DateUTC
12:52 AM,39.9,19.9,45,29.63,10.0,SW,11.5,-,N/A,,Clear,230,2011-11-12 06:52:00
1:52 AM,41.0,19.9,43,29.62,10.0,SW,11.5,-,N/A,,Clear,220,2011-11-12 07:52:00
2:52 AM,30.9,18.0,59,29.61,10.0,South,10.4,-,N/A,,Clear,180,2011-11-12 08:52:00
3:52 AM,28.9,17.1,61,29.60,10.0,South,8.1,-,N/A,,Clear,190,2011-11-12 09:52:00
4:52 AM,27.0,16.0,63,29.60,10.0,South,10.4,-,N/A,,Clear,180,2011-11-12 10:52:00
5:52 AM,27.0,18.0,69,29.59,10.0,South,9.2,-,N/A,,Clear,180,2011-11-12 11:52:00
6:52 AM,25.0,18.0,75,29.57,10.0,South,8.1,-,N/A,,Clear,180,2011-11-12 12:52:00
7:52 AM,28.9,21.9,75,29.58,9.0,South,9.2,-,N/A,,Clear,180,2011-11-12 13:52:00
8:52 AM,36.0,25.0,64,29.56,10.0,South,9.2,-,N/A,,Clear,190,2011-11-12 14:52:00
9:52 AM,39.9,27.0,60,29.55,10.0,South,11.5,-,N/A,,Clear,180,2011-11-12 15:52:00
10:52 AM,45.0,30.0,56,29.54,10.0,South,13.8,-,N/A,,Clear,180,2011-11-12 16:52:00
11:52 AM,48.0,30.9,52,29.51,10.0,South,15.0,-,N/A,,Clear,170,2011-11-12 17:52:00
12:52 PM,53.1,33.1,47,29.47,10.0,South,15.0,-,N/A,,Clear,170,2011-11-12 18:52:00
1:52 PM,59.0,36.0,42,29.41,10.0,South,18.4,-,N/A,,Clear,170,2011-11-12 19:52:00
2:52 PM,59.0,34.0,39,29.39,10.0,South,23.0,-,N/A,,Clear,170,2011-11-12 20:52:00
3:52 PM,55.0,35.1,47,29.37,10.0,SSE,20.7,26.5,N/A,,Clear,160,2011-11-12 21:52:00
4:52 PM,52.0,35.1,53,29.36,10.0,South,21.9,-,N/A,,Clear,170,2011-11-12 22:52:00
5:52 PM,48.0,35.1,61,29.38,10.0,South,13.8,-,N/A,,Clear,190,2011-11-12 23:52:00
6:52 PM,48.0,34.0,58,29.38,10.0,SSW,13.8,-,N/A,,Clear,200,2011-11-13 00:52:00
7:52 PM,46.0,34.0,63,29.33,10.0,South,15.0,-,N/A,,Clear,180,2011-11-13 01:52:00
8:52 PM,44.1,34.0,68,29.31,10.0,South,11.5,-,N/A,,Clear,190,2011-11-13 02:52:00
9:52 PM,42.1,33.1,70,29.29,10.0,South,9.2,-,N/A,,Clear,190,2011-11-13 03:52:00
10:52 PM,44.1,34.0,68,29.27,10.0,SSW,16.1,-,N/A,,Clear,210,2011-11-13 04:52:00
11:52 PM,45.0,35.1,68,29.25,10.0,SW,10.4,-,N/A,,Clear,230,2011-11-13 05:52:00